{"data":{"norad_id":68947,"epoch":"2026-09-20T04:41:47.948640Z","epoch_age_seconds":45591,"freshness":"FRESH","line1":"1 68947U 26098AE  26263.19569385  .00001472  00000+0  22208-3 0  9994","line2":"2 68947  51.8991 347.9637 0001960 140.5852 219.5253 14.79937021 21697","mean_motion":14.79937021,"eccentricity":0.000196,"inclination_deg":51.8991,"raan_deg":347.9637,"arg_perigee_deg":140.5852,"mean_anomaly_deg":219.5253,"bstar":0.00022208,"rev_number":2169,"period_min":97.301437802197,"perigee_km":628.1494345557,"apogee_km":630.89643725058,"semimajor_km":7007.6599359031,"source":"CELESTRAK","updated_at":"2026-09-20T09:00:24.585029Z"}}